Waarnemingen

Advertentie
Mijn weer
Finisterre, Spanje (8040): temperatuur & dauwpunt: 09.11.2018 09:00:00 - 15.11.2018 09:00:00 (CET)Finisterre, Spanje (8040): windsnelheid & windstoten: 09.11.2018 09:00:00 - 15.11.2018 09:00:00 (CET)Finisterre, Spanje (8040): windrichting: 09.11.2018 09:00:00 - 15.11.2018 09:00:00 (CET)Finisterre, Spanje (8040): luchtdruk: 09.11.2018 09:00:00 - 15.11.2018 09:00:00 (CET)Finisterre, Spanje (8040): zicht: 09.11.2018 09:00:00 - 15.11.2018 09:00:00 (CET)Finisterre, Spanje (8040): Zonneschijnduur: 09.11.2018 09:00:00 - 15.11.2018 09:00:00 (CET)Finisterre, Spanje (8040): neerslag: 09.11.2018 09:00:00 - 15.11.2018 09:00:00 (CET)
Datum & Tijd tt [°C] td [°C] ff [km/u] ff [kn] fx [km/u] fx [kn] dd ppp [hPa] vv [km] sd [min] rr [mm]
15.11.2018 09:00:00 15,2 9,6 7 4 19 11 ZO 1015,1 16 0 0,0
15.11.2018 08:00:00 15,7 8,9 11 6 23 13 Z 1014,5 17 0 0,0
15.11.2018 07:00:00 15,9 8,9 12 6 25 14 Z 1014,2 16 0 -
15.11.2018 06:00:00 16,1 8,8 22 12 35 19 Z 1013,6 17 0 0,0
15.11.2018 05:00:00 16,1 8,8 27 15 41 22 Z 1013,2 18 0 0,2
15.11.2018 04:00:00 15,6 8,5 29 16 43 23 Z 1013,2 16 0 0,0
15.11.2018 03:00:00 15,6 8,8 26 14 44 24 Z 1013,2 16 0 0,0
15.11.2018 02:00:00 15,7 8,9 28 15 42 23 Z 1013,3 17 0 0,0
15.11.2018 01:00:00 15,1 9,9 24 13 37 20 ZZO 1013,4 15 0 -
15.11.2018 00:00:00 14,8 10,0 17 9 36 19 ZZO 1013,6 15 0 0,0
14.11.2018 23:00:00 14,6 9,6 20 11 36 19 Z 1014,1 15 0 0,2
14.11.2018 22:00:00 14,5 9,0 13 7 36 19 ZZO 1014,6 17 0 0,0
14.11.2018 21:00:00 14,9 9,3 23 12 32 17 Z 1014,9 15 0 0,0
14.11.2018 20:00:00 14,7 9,0 23 12 36 19 Z 1015,3 17 0 0,0
14.11.2018 19:00:00 14,2 8,8 26 14 34 18 Z 1015,6 15 0 -
14.11.2018 18:00:00 14,4 8,8 16 9 28 15 Z 1015,7 16 43 0,0
14.11.2018 17:00:00 15,7 8,7 15 8 32 18 ZZW 1015,9 16 59 0,2
14.11.2018 16:00:00 16,6 9,0 16 9 37 20 ZZW 1016,0 17 60 0,0
14.11.2018 15:00:00 17,0 9,2 27 15 40 22 Z 1016,5 19 60 0,0
14.11.2018 14:00:00 16,0 9,2 22 12 33 18 Z 1017,1 20 60 0,0
14.11.2018 13:00:00 15,7 9,3 24 13 38 20 Z 1017,6 20 55 -
14.11.2018 12:00:00 15,3 8,9 26 14 40 22 Z 1018,5 20 56 0,2
14.11.2018 11:00:00 14,0 8,7 22 12 32 17 Z 1018,8 14 60 0,0
14.11.2018 10:00:00 12,9 8,4 22 12 34 18 Z 1019,3 16 60 0,0
14.11.2018 09:00:00 11,9 7,6 25 14 37 20 Z 1019,1 16 2 0,0
14.11.2018 08:00:00 11,6 7,1 24 13 34 19 Z 1019,1 15 0 0,0
14.11.2018 07:00:00 11,8 6,5 26 14 35 19 Z 1019,0 19 0 -
14.11.2018 06:00:00 11,9 6,2 26 14 35 19 Z 1019,3 19 0 0,0
14.11.2018 05:00:00 11,3 5,8 22 12 27 14 Z 1019,9 17 0 0,0
14.11.2018 04:00:00 11,5 6,2 18 10 23 13 Z 1020,5 16 0 0,0
14.11.2018 03:00:00 11,4 5,8 15 8 20 11 Z 1021,0 20 0 0,0
14.11.2018 02:00:00 11,6 5,3 11 6 14 7 Z 1021,6 20 0 0,0
14.11.2018 01:00:00 10,9 4,8 7 4 9 5 Z 1022,4 20 0 -
14.11.2018 00:00:00 11,2 2,5 2 1 5 3 NNO 1022,8 20 0 0,0
13.11.2018 23:00:00 11,4 1,9 5 3 9 5 NNO 1023,4 20 0 0,0
13.11.2018 22:00:00 11,3 1,5 6 4 8 5 N 1023,5 20 0 0,0
13.11.2018 21:00:00 11,2 3,2 7 4 10 5 NO 1023,8 20 0 0,0
13.11.2018 20:00:00 10,8 4,5 10 5 11 6 N 1023,8 20 0 0,2
13.11.2018 19:00:00 11,3 4,1 5 3 13 7 NNO 1023,7 20 9 -
13.11.2018 18:00:00 13,1 5,8 5 3 8 4 NNW 1023,3 14 50 0,0
13.11.2018 17:00:00 14,0 5,9 2 1 11 6 NW 1023,3 10 59 0,0
13.11.2018 16:00:00 14,1 6,2 2 1 7 4 NW 1023,3 18 60 0,2
13.11.2018 15:00:00 14,1 6,4 3 2 8 4 NW 1023,8 20 60 0,0
13.11.2018 14:00:00 13,4 5,6 5 3 8 5 NNW 1024,3 20 60 0,0
13.11.2018 13:00:00 13,5 7,0 3 2 10 5 WNW 1025,0 9 56 -
13.11.2018 12:00:00 13,8 8,0 3 2 11 6 ZZO 1025,4 12 56 0,2
13.11.2018 11:00:00 12,3 7,1 4 2 12 6 OZO 1025,7 11 60 0,0
13.11.2018 10:00:00 11,4 6,4 3 1 16 9 Z 1025,6 17 60 0,0
13.11.2018 09:00:00 10,1 3,8 13 7 18 10 ONO 1025,1 20 2 0,0
13.11.2018 08:00:00 9,9 4,1 14 8 18 10 NNO 1024,8 20 0 0,0
13.11.2018 07:00:00 10,2 5,3 10 6 12 6 NO 1024,7 20 0 -
13.11.2018 06:00:00 10,5 5,6 7 4 8 5 NNO 1024,5 20 0 0,2
13.11.2018 05:00:00 10,8 7,4 7 4 8 5 NO 1024,1 20 0 0,0
13.11.2018 04:00:00 10,5 7,1 4 2 6 3 ONO 1024,2 20 0 0,0
13.11.2018 03:00:00 10,5 7,4 3 1 5 3 OZO 1023,9 20 0 0,0
13.11.2018 02:00:00 10,8 7,7 3 2 8 4 NO 1023,8 13 0 0,2
13.11.2018 01:00:00 10,5 8,7 7 4 13 7 ZO 1023,4 20 0 -
13.11.2018 00:00:00 10,8 8,5 5 3 10 6 OZO 1023,0 20 0 0,0
12.11.2018 23:00:00 10,8 9,0 7 4 10 6 OZO 1022,7 17 0 0,0
12.11.2018 22:00:00 11,0 8,5 5 3 10 5 NO 1022,3 20 0 0,2
12.11.2018 21:00:00 10,7 8,7 8 5 11 6 N 1022,0 20 0 0,0
12.11.2018 20:00:00 10,7 8,8 9 5 11 6 WNW 1021,3 20 0 0,0
12.11.2018 19:00:00 11,0 8,9 10 5 13 7 W 1020,1 20 1 -
12.11.2018 18:00:00 11,8 9,3 8 5 12 6 W 1019,1 20 31 0,0
12.11.2018 17:00:00 13,5 10,6 5 3 11 6 ZZW 1018,2 20 59 0,0
12.11.2018 16:00:00 12,8 10,5 5 3 20 11 ZZW 1017,8 14 60 0,0
12.11.2018 15:00:00 11,6 10,6 16 8 24 13 Z 1017,5 7 10 0,2
12.11.2018 14:00:00 10,8 9,6 16 9 31 17 Z 1017,5 7 0 0,0
12.11.2018 13:00:00 11,1 9,7 18 10 35 19 ZZW 1017,3 4,4 6 -
12.11.2018 12:00:00 12,6 11,0 19 10 36 20 ZZW 1016,6 10 49 0,2
12.11.2018 11:00:00 11,5 10,4 17 9 27 15 Z 1016,1 6 19 0,0
12.11.2018 10:00:00 11,2 9,9 10 5 20 11 Z 1015,1 6 54 0,0
12.11.2018 09:00:00 10,2 8,9 11 6 16 8 WZW 1013,8 13 2 0,2
12.11.2018 08:00:00 10,3 9,2 11 6 25 14 Z 1013,5 8 0 0,0
12.11.2018 07:00:00 10,2 9,2 20 11 33 18 Z 1013,3 5 0 -
12.11.2018 06:00:00 10,0 8,9 23 12 32 17 Z 1012,8 4,4 0 0,2
12.11.2018 05:00:00 10,6 9,6 21 11 29 16 ZZO 1012,0 5 0 0,0
12.11.2018 04:00:00 10,5 9,3 16 9 23 12 ZZO 1011,6 6 0 0,0
12.11.2018 03:00:00 10,4 9,2 11 6 16 8 ZZW 1010,8 9 0 0,2
12.11.2018 02:00:00 10,5 9,3 7 4 18 10 Z 1010,2 8 0 0,0
12.11.2018 01:00:00 10,6 9,3 14 7 19 10 Z 1010,0 8 0 -
12.11.2018 00:00:00 10,4 9,3 13 7 18 10 ZZO 1009,5 4,9 0 0,2
11.11.2018 23:00:00 10,5 9,3 11 6 22 12 OZO 1009,3 7 0 0,0
11.11.2018 22:00:00 10,9 9,2 6 4 14 8 Z 1009,3 5 0 0,2
11.11.2018 21:00:00 10,7 8,3 10 5 16 9 WZW 1009,0 13 0 0,0
11.11.2018 20:00:00 11,3 8,7 14 8 19 11 W 1008,4 16 0 0,2
11.11.2018 19:00:00 11,4 8,8 14 7 20 11 WNW 1007,8 18 3 -
11.11.2018 18:00:00 11,6 8,8 18 10 28 15 W 1007,6 20 3 0,0
11.11.2018 17:00:00 11,9 9,0 22 12 30 16 W 1007,7 15 0 0,2
11.11.2018 16:00:00 12,3 10,4 17 9 25 13 WZW 1006,9 15 0 0,0
11.11.2018 15:00:00 12,3 10,0 19 10 29 16 WZW 1007,1 19 0 0,2
11.11.2018 14:00:00 12,5 10,9 21 12 27 15 ZW 1006,8 15 0 0,0
11.11.2018 13:00:00 12,0 10,5 19 10 32 18 ZW 1007,5 16 0 -
11.11.2018 12:00:00 11,7 10,3 23 12 35 19 ZW 1008,3 18 0 0,0
11.11.2018 11:00:00 11,4 9,9 25 14 34 18 WZW 1008,2 18 0 0,2
11.11.2018 10:00:00 10,9 9,4 25 14 55 30 WZW 1007,6 19 0 0,0
11.11.2018 09:00:00 11,6 10,0 29 16 43 23 W 1007,1 15 0 0,2
11.11.2018 08:00:00 11,5 10,3 31 17 50 27 W 1006,5 13 0 0,2
11.11.2018 07:00:00 12,0 11,1 35 19 45 24 W 1006,0 9 0 -
11.11.2018 06:00:00 11,9 11,1 34 18 59 32 W 1004,9 11 0 0,2
11.11.2018 05:00:00 12,6 12,0 46 25 67 36 WZW 1003,7 5 0 0,2
11.11.2018 04:00:00 13,1 12,4 49 26 63 34 WZW 1003,7 0,5 0 0,0
11.11.2018 03:00:00 13,1 12,3 54 29 69 37 ZW 1003,8 0,8 0 0,2
11.11.2018 02:00:00 13,3 12,5 56 30 73 39 ZW 1004,4 2,7 0 0,2
11.11.2018 01:00:00 13,4 12,6 55 30 72 39 ZW 1005,0 2,4 0 -
11.11.2018 00:00:00 13,1 12,3 50 27 70 38 ZW 1005,8 4,2 0 0,2
10.11.2018 23:00:00 13,4 12,6 59 32 75 40 ZW 1005,8 4,3 0 0,2
10.11.2018 22:00:00 13,7 13,0 57 31 70 38 ZW 1006,1 2,4 0 0,2
10.11.2018 21:00:00 13,7 13,0 57 31 74 40 ZW 1006,2 2,0 0 0,0
10.11.2018 20:00:00 13,7 13,0 57 31 82 44 ZW 1006,1 2,0 0 0,2
10.11.2018 19:00:00 13,5 12,5 61 33 79 43 ZW 1005,9 4,2 0 -
10.11.2018 18:00:00 13,6 12,6 59 32 74 40 ZW 1006,2 4,5 0 0,2
10.11.2018 17:00:00 13,7 12,4 56 31 67 36 ZW 1006,2 6 0 0,2
10.11.2018 16:00:00 15,0 13,4 48 26 68 37 ZW 1006,3 8 60 0,2
10.11.2018 15:00:00 14,1 12,6 48 26 63 34 WZW 1006,4 9 60 0,2
10.11.2018 14:00:00 14,9 13,7 48 26 65 35 WZW 1006,4 9 54 0,2
10.11.2018 13:00:00 13,7 12,6 46 25 60 32 W 1006,7 10 57 -
10.11.2018 12:00:00 13,0 12,4 46 25 60 32 W 1006,4 9 27 0,4
10.11.2018 11:00:00 12,0 11,3 30 16 53 28 WZW 1006,2 6 3 0,0
10.11.2018 10:00:00 12,2 11,4 42 23 71 38 ZW 1006,0 2,8 0 0,2
10.11.2018 09:00:00 12,5 11,7 44 24 54 29 ZZW 1006,1 3,7 0 0,2
10.11.2018 08:00:00 12,2 11,4 39 21 47 25 ZW 1006,0 8 0 0,2
10.11.2018 07:00:00 12,0 11,1 36 19 51 28 WZW 1006,4 8 0 -
10.11.2018 06:00:00 11,8 11,0 34 18 56 31 WZW 1006,6 8 0 0,2
10.11.2018 05:00:00 12,1 11,3 41 22 64 35 W 1006,2 8 0 0,2
10.11.2018 04:00:00 12,4 11,8 43 23 55 30 W 1006,1 7 0 0,4
10.11.2018 03:00:00 12,1 11,4 47 25 68 37 W 1005,7 2,9 0 0,2
10.11.2018 02:00:00 13,8 13,2 36 20 51 28 WZW 1005,8 0,2 0 0,2
10.11.2018 01:00:00 13,3 12,6 37 20 55 30 WZW 1006,6 0,2 0 -
10.11.2018 00:00:00 12,3 11,7 41 22 74 40 WZW 1006,5 0,2 0 0,2
09.11.2018 23:00:00 12,4 11,8 61 33 82 44 W 1006,2 3,0 0 0,4
09.11.2018 22:00:00 12,6 12,0 44 24 106 57 WNW 1006,4 0,1 0 0,2
09.11.2018 21:00:00 14,3 13,7 81 44 106 57 ZW 1004,9 0,1 0 0,2
09.11.2018 20:00:00 14,2 13,6 81 44 110 59 ZW 1005,6 0,2 0 0,2
09.11.2018 19:00:00 14,1 13,5 84 46 110 60 ZW 1005,8 0,9 0 -
09.11.2018 18:00:00 14,2 13,6 79 42 98 53 ZW 1006,4 0,1 0 0,4
09.11.2018 17:00:00 14,1 13,5 76 41 98 53 ZW 1007,1 0,1 0 0,2
09.11.2018 16:00:00 14,1 13,5 75 41 95 51 ZW 1007,6 0,2 0 0,2
09.11.2018 15:00:00 14,0 13,4 75 41 94 51 ZW 1008,5 0,2 0 0,2
09.11.2018 14:00:00 13,8 13,2 76 41 97 52 ZW 1008,9 0,2 0 0,2
09.11.2018 13:00:00 13,0 12,4 72 39 98 53 ZZW 1009,9 0,2 0 -
09.11.2018 12:00:00 12,5 11,7 65 35 95 51 ZZW 1010,4 0,2 0 0,2
09.11.2018 11:00:00 12,1 11,3 59 32 86 47 ZZW 1011,6 0,2 0 0,2
09.11.2018 10:00:00 12,1 11,0 62 34 85 46 ZZW 1012,6 0,5 0 0,2
09.11.2018 09:00:00 11,8 10,5 61 33 78 42 ZZW 1013,3 7 0 0,2

tt = temperatuur
td = dauwpunt
ff = windsnelheid
fx = windstoten
dd = windrichting
ppp = luchtdruk
vv = zicht
sd = Zonneschijnduur
rr = neerslag

Weerstations in de omgeving